TimePST,TemperatureF,Dew PointF,Humidity,Sea Level PressureIn,VisibilityMPH,Wind Direction,Wind SpeedMPH,Gust SpeedMPH,PrecipitationIn,Events,Conditions,WindDirDegrees,DateUTC
12:53 AM,34.0,33.1,96,29.79,10.0,ENE,3.5,-,N/A,,Clear,70,2011-11-24 08:53:00
1:53 AM,35.1,33.1,92,29.77,10.0,East,5.8,-,N/A,,Clear,80,2011-11-24 09:53:00
2:53 AM,36.0,34.0,93,29.75,10.0,ENE,4.6,-,N/A,,Mostly Cloudy,70,2011-11-24 10:53:00
3:53 AM,37.9,35.1,89,29.72,10.0,ESE,4.6,-,N/A,,Scattered Clouds,120,2011-11-24 11:53:00
4:00 AM,-9999,-9999,N/A,-9999,-9999.0,North,-9999.0,-,N/A,,Unknown,0,2011-11-24 12:00:00
4:53 AM,39.0,36.0,89,29.68,10.0,SE,11.5,-,0.02,,Mostly Cloudy,130,2011-11-24 12:53:00
5:53 AM,39.9,37.0,89,29.63,10.0,SE,10.4,20.7,N/A,,Overcast,140,2011-11-24 13:53:00
6:37 AM,41.0,37.4,87,29.62,10.0,SSE,10.4,20.7,0.01,Rain,Light Rain,150,2011-11-24 14:37:00
6:53 AM,41.0,39.0,93,29.62,6.0,SE,10.4,23.0,0.03,Rain,Light Rain,140,2011-11-24 14:53:00
7:53 AM,42.1,39.0,89,29.59,9.0,SSE,12.7,28.8,0.03,Rain,Light Rain,150,2011-11-24 15:53:00
8:06 AM,42.8,39.2,87,29.57,5.0,SSE,12.7,29.9,0.01,Rain,Light Rain,150,2011-11-24 16:06:00
8:53 AM,41.0,39.0,93,29.54,4.0,SSE,12.7,27.6,0.10,Rain,Light Rain,160,2011-11-24 16:53:00
9:51 AM,41.0,37.4,87,29.50,2.0,SSE,15.0,33.4,0.10,Rain,Rain,150,2011-11-24 17:51:00
9:53 AM,41.0,37.9,89,29.51,2.0,SSE,12.7,31.1,0.11,Rain,Rain,150,2011-11-24 17:53:00
10:14 AM,39.2,37.4,93,29.50,1.5,SSE,12.7,25.3,0.07,Rain,Rain,150,2011-11-24 18:14:00
10:40 AM,39.2,37.4,93,29.49,2.0,SSE,15.0,36.8,0.16,Rain,Rain,160,2011-11-24 18:40:00
10:53 AM,39.0,37.0,93,29.49,2.0,SE,13.8,27.6,0.21,Rain,Rain,140,2011-11-24 18:53:00
11:02 AM,39.2,37.4,93,29.47,1.8,SE,19.6,33.4,0.04,Rain,Rain,140,2011-11-24 19:02:00
11:10 AM,37.4,37.4,100,29.47,2.5,SE,15.0,27.6,0.06,Rain,Rain,140,2011-11-24 19:10:00
11:23 AM,37.4,35.6,93,29.45,3.0,SSE,20.7,34.5,0.09,Rain,Light Rain,150,2011-11-24 19:23:00
11:45 AM,37.4,37.4,100,29.44,2.5,SSE,19.6,33.4,0.12,Rain,Light Rain,150,2011-11-24 19:45:00
11:53 AM,37.9,36.0,93,29.43,1.5,SE,19.6,36.8,0.14,Rain,Light Rain,140,2011-11-24 19:53:00
12:14 PM,39.2,37.4,93,29.40,2.0,SSE,11.5,31.1,0.05,Rain,Light Rain,150,2011-11-24 20:14:00
12:23 PM,39.2,37.4,93,29.39,1.8,SSE,21.9,33.4,0.05,Rain,Rain,150,2011-11-24 20:23:00
12:46 PM,39.2,37.4,93,29.39,1.2,SSE,11.5,31.1,0.14,Rain,Heavy Rain,150,2011-11-24 20:46:00
12:53 PM,39.0,37.9,96,29.42,1.2,South,13.8,28.8,0.18,Rain,Rain,170,2011-11-24 20:53:00
1:07 PM,39.2,37.4,93,29.42,0.5,SSW,12.7,18.4,0.19,Fog-Rain,Heavy Rain,200,2011-11-24 21:07:00
1:21 PM,42.8,39.2,87,29.42,1.5,South,9.2,38.0,0.46,Rain,Rain,170,2011-11-24 21:21:00
1:24 PM,41.0,39.2,93,29.42,3.0,South,10.4,34.5,0.46,Rain,Light Rain,170,2011-11-24 21:24:00
1:53 PM,46.0,44.1,93,29.44,4.0,SSW,8.1,-,0.47,Rain,Light Rain,200,2011-11-24 21:53:00
2:24 PM,48.2,42.8,82,29.44,7.0,SSW,12.7,25.3,0.01,,Overcast,210,2011-11-24 22:24:00
2:53 PM,48.0,43.0,83,29.46,9.0,SW,8.1,21.9,0.01,,Overcast,220,2011-11-24 22:53:00
3:07 PM,46.4,42.8,87,29.47,9.0,SW,17.3,25.3,N/A,,Overcast,220,2011-11-24 23:07:00
3:53 PM,46.0,39.0,76,29.52,9.0,West,20.7,32.2,0.00,Rain,Light Rain,260,2011-11-24 23:53:00
4:53 PM,46.0,39.9,79,29.57,9.0,West,12.7,25.3,0.00,Rain,Light Rain,260,2011-11-25 00:53:00
5:53 PM,44.1,37.9,79,29.61,6.0,West,18.4,31.1,0.01,Rain,Light Rain,260,2011-11-25 01:53:00
6:53 PM,43.0,37.9,82,29.65,10.0,West,6.9,-,0.00,,Overcast,270,2011-11-25 02:53:00
7:53 PM,44.1,37.0,76,29.69,10.0,West,15.0,26.5,0.00,,Overcast,280,2011-11-25 03:53:00
8:53 PM,44.1,30.9,60,29.75,10.0,West,18.4,32.2,N/A,,Overcast,270,2011-11-25 04:53:00
9:53 PM,43.0,30.9,62,29.80,10.0,West,12.7,24.2,N/A,,Mostly Cloudy,280,2011-11-25 05:53:00
10:53 PM,43.0,33.1,68,29.84,10.0,West,12.7,19.6,0.00,Rain,Light Rain,270,2011-11-25 06:53:00
11:53 PM,43.0,32.0,65,29.90,10.0,West,17.3,23.0,0.00,,Mostly Cloudy,270,2011-11-25 07:53:00